This is the latest recevied weather packets stored in our database for station/object KR8N. If no packets are shown the sender has not sent any weather packets the latest 10 day(s).
| Time | Temp. | Humidity | Pressure | Rain* | Wind** | Luminosity | Snow |
|---|---|---|---|---|---|---|---|
| 1777754460 | 10.56° C | 41% | 1016.9 hPa | 0 mm | - | 302 W/m² | - |
| 1777754156 | 10° C | 42% | 1017.2 hPa | 0 mm | - | 803 W/m² | - |
| 1777753854 | 10° C | 43% | 1017.2 hPa | 0 mm | - | 289 W/m² | - |
| 1777753549 | 9.44° C | 45% | 1017.1 hPa | 0 mm | - | 333 W/m² | - |
| 1777753248 | 9.44° C | 47% | 1017.3 hPa | 0 mm | - | 312 W/m² | - |
| 1777752944 | 9.44° C | 46% | 1017.1 hPa | 0 mm | - | 177 W/m² | - |
| 1777752640 | 8.89° C | 46% | 1017.4 hPa | 0 mm | - | 158 W/m² | - |
| 1777752336 | 9.44° C | 48% | 1017.3 hPa | 0 mm | - | 152 W/m² | - |
| 1777752035 | 9.44° C | 44% | 1017.3 hPa | 0 mm | - | 152 W/m² | - |
| 1777751732 | 10° C | 45% | 1017.4 hPa | 0 mm | - | 242 W/m² | - |
| 1777751427 | 10° C | 43% | 1017.5 hPa | 0 mm | - | 331 W/m² | - |
| 1777751124 | 10.56° C | 42% | 1017.3 hPa | 0 mm | - | 315 W/m² | - |
| 1777750821 | 10.56° C | 43% | 1017.6 hPa | 0 mm | - | 404 W/m² | - |
| 1777750518 | 10° C | 45% | 1017.6 hPa | 0 mm | - | 414 W/m² | - |
| 1777750215 | 10° C | 44% | 1017.7 hPa | 0 mm | - | 360 W/m² | - |
| 1777749910 | 10° C | 43% | 1017.8 hPa | 0 mm | - | 360 W/m² | - |
| 1777749608 | 8.89° C | 46% | 1017.9 hPa | 0 mm | - | 429 W/m² | - |
| 1777749305 | 8.89° C | 46% | 1017.9 hPa | 0 mm | - | 310 W/m² | - |
| 1777749003 | 8.89° C | 48% | 1017.8 hPa | 0 mm | - | 269 W/m² | - |
| 1777748700 | 8.89° C | 45% | 1017.7 hPa | 0 mm | - | 191 W/m² | - |
| 1777748396 | 9.44° C | 47% | 1018 hPa | 0 mm | - | 173 W/m² | - |
| 1777748092 | 9.44° C | 44% | 1017.9 hPa | 0 mm | - | 213 W/m² | - |
| 1777747789 | 10° C | 48% | 1017.9 hPa | 0 mm | - | 274 W/m² | - |
| 1777747484 | 9.44° C | 46% | 1018.2 hPa | 0 mm | - | 321 W/m² | - |
| 1777747181 | 8.89° C | 47% | 1017.9 hPa | 0 mm | - | 336 W/m² | - |
* Rain latest hour (hover to see other rain measurements)
** Current wind speed in m/s (hover to see current wind gust speed)